Погода в Кирове

Беларусь     51°30′14″N   29°25′37″E
темп.,
°C
ветер,
м/с
пор.,
м/с
влажн.,
%
обл.,
%
осадки,
мм/ч
давл.,
гПа
погр.,
м
29 июня, ср
ср2900:00+22ююв117833 0.1 101813
03:00+20в1188100 0.1 101811
06:00+21ююв11897 0.1 101816
09:00+27юв12661 0.2 1017356
12:00+32ююв124093 0.0 10172545
15:00+20с81192100 13.3 1016348
18:00+18вюв4895100 15.9 1017210
21:00+18ссз2296100 17.3 101837
30 июня, чт
чт3000:00+18ю0193100 2.4 101512
03:00+16в2299100 2.4 101655
06:00+16св23974 0.0 101692
09:00+20всв2381100 0.0 1016492
12:00+25всв34589 0.0 10161207
15:00+27в455194 0.0 10161672
18:00+26в4557100 0.0 10161280
21:00+21в2482100 0.0 101781
1 июля, пт
пт100:00+18вюв228820 0.0 101949
03:00+16вюв11950 0.0 102011
06:00+16всв11920 0.0 102017
09:00+22всв22670 0.0 1020539
12:00+26всв33450 0.0 10201759
15:00+28всв33385 0.0 10192054
18:00+27всв33415 0.0 10191490
21:00+20всв36660 0.0 1020104
2 июля, сб
сб200:00+17юв25795 0.0 102193
03:00+17юв22795 0.0 102232
06:00+16ююв11825 0.0 102211
09:00+24юв11560 0.0 1022442
12:00+28ю11390 0.0 10221859
15:00+29ююз22340 0.0 10212254
18:00+28юз22375 0.0 10202038
21:00+22юз226413 0.0 102013
3 июля, вс
вс300:00+19юз116516 0.0 102011
03:00+18юз22695 0.0 102017
06:00+17юз22730 0.0 102036
09:00+24зюз23515 0.0 1019395
12:00+29юз234243 0.0 10181560
15:00+29зюз344793 0.1 10171950
18:00+24зсз467740 2.9 1017771
21:00+20з277919 2.9 1017177